Regional Weather Roundup
Issued by NWS

Home | Current Version | Previous Version | Graphics & Text | Print | Product List | Glossary On
Versions: 1 2 3 4 5 6 7 8 9 10 11 12 13 14 15 16 17 18 19 20 21 22 23 24 25 26 27
000
ASUS45 KBOU 250610
RWRCO

WEATHER ROUNDUP FOR COLORADO
NATIONAL WEATHER SERVICE DENVER/BOULDER CO
1200 AM MDT SUN SEP 25 2016

NOTE: "FAIR" INDICATES FEW OR NO CLOUDS BELOW 12000 FEET WITH NO
SIGNIFICANT WEATHER AND/OR OBSTRUCTIONS TO VISIBILITY.

COZ001>005-013-030-031-250700-
...NORTHWEST COLORADO...

CITY           SKY/WX    TMP DP  RH WIND       PRES   REMARKS
CRAIG          CLOUDY    43  40  89 CALM      30.42R
HAYDEN         CLOUDY    43  36  75 E3        30.42R
MEEKER         MOCLDY    44  42  93 NE3       30.42R
MOUNT WERNER   NOT AVBL
STEAMBOAT SPGS CLOUDY    40  39  95 E3        30.43R
WALDEN           N/A     36  34  93 CALM      30.44R
$$

COZ006>008-011-250700-
...WEST CENTRAL VALLEYS...

CITY           SKY/WX    TMP DP  RH WIND       PRES   REMARKS
GRAND JUNCTION FAIR      50  42  74 NE3       30.36R
MONTROSE       CLOUDY    50  42  74 CALM      30.39R
EAGLE          CLOUDY    46  39  76 CALM      30.44R
RIFLE          CLOUDY    49  47  93 W6        30.40R
DELTA          CLOUDY    55  42  63 CALM      30.37R
NUCLA          CLOUDY    52  36  54 N7        30.39R
$$

COZ017>023-064>068-250700-
...SOUTHWEST COLORADO...

CITY           SKY/WX    TMP DP  RH WIND       PRES   REMARKS
DURANGO        FAIR      43  31  62 N10       30.28R
CORTEZ         FAIR      47  37  68 E6        30.28F
PAGOSA SPRINGS FAIR      38  30  70 CALM      30.33R
TELLURIDE      CLOUDY    42  28  57 CALM      30.42S
WOLF CREEK PAS FAIR      27  23  86 MISG      30.50R
$$

COZ009-010-012-014-032>034-037-058>063-250700-
...CENTRAL COLORADO...

CITY           SKY/WX    TMP DP  RH WIND       PRES   REMARKS
ASPEN          CLOUDY    42  37  82 CALM      30.43R
BUENA VISTA    FAIR      43  28  56 NW9       30.38S
COPPER MTN     HAZE      32  28  86 MISG      30.52R VSB 3/4
BERTHOUD PASS  CLOUDY    23  10  58 NW15G26   30.51R WCI  10
COTTONWOOD PAS MOCLDY    39  28  65 W6        30.44S
GUNNISON       CLOUDY    39  36  87 CALM      30.41R
KREMMLING      CLOUDY    41  34  75 CALM      30.44R
LEADVILLE      CLOUDY    34  27  75 N5        30.45R WCI  30
SALIDA         FAIR      41  30  65 W3        30.45S
SUNLIGHT       FOG       32  32 100 MISG      30.55R VSB 1
WILKERSON PASS CLOUDY    32  23  69 NE8       30.50S WCI  25
$$

COZ069>075-250700-
...SAN LUIS VALLEY/SANGRE DE CRISTO MOUNTAINS...

CITY           SKY/WX    TMP DP  RH WIND       PRES   REMARKS
ALAMOSA        FAIR      37  28  70 N7        30.34R
LA VETA PASS   FAIR      34  23  64 MISG      30.44R
SAGUACHE       NOT AVBL
$$

COZ035-036-038>040-250700-
...NORTHERN COLORADO FRONT RANGE...

CITY           SKY/WX    TMP DP  RH WIND       PRES   REMARKS
DENVER INTL AP FAIR      49  33  54 CALM      30.30R
DMNS CITY PARK   N/A     51  34  52 E2G12     30.30R
AURORA         MOCLDY    47  33  58 VRB3      30.31R
FRONT RANGE AP MOCLDY    50  34  53 N6        30.31R
ERIE MUNI ARPT CLOUDY    52  36  54 CALM      30.29R
BOULDER MUN AP CLOUDY    54  34  47 NE3       30.29R
CENTENNIAL     FAIR      50  33  52 NE6       30.31R
BROOMFIELD     CLOUDY    52  34  50 NE3       30.31R
FORT COLLINS   FAIR      52  36  54 N12       30.31R
LONGMONT       CLOUDY    55  36  48 N7        30.30R
$$

COZ041-046-047-076>085-087-088-250700-
...PIKES PEAK/PALMER DIVIDE AND SOUTHERN FOOTHILLS...

CITY           SKY/WX    TMP DP  RH WIND       PRES   REMARKS
COLO. SPRINGS  FAIR      50  30  46 N16       30.31R
A. F. ACADEMY  FAIR      46  27  46 N9        30.32R
SCHRIEVER AFB  NOT AVBL
ELLICOTT       NOT AVBL
FALCON         FAIR      43  32  63 N9        30.34R
FORT CARSON    FAIR      52  29  42 N15       30.27R
LIMON          FAIR      48  34  58 N15       30.29R
MONUMENT HILL  FAIR      37  32  81 NE5       30.36R
TRINIDAD       FAIR      49  27  42 W7        30.28R
$$

COZ042>045-048>051-090-091-250700-
...NORTHEAST COLORADO...

CITY           SKY/WX    TMP DP  RH WIND       PRES   REMARKS
GREELEY ARPT   MOCLDY    52  36  54 N15       30.29R
AKRON          FAIR      45  37  73 NW10      30.27R
BURLINGTON     FAIR      55  39  54 N12       30.22R
WRAY           NOT AVBL
STERLING       FAIR      41  36  81 W5        30.25R
HOLYOKE        FAIR      54  41  62 NW8       30.21S
FORT MORGAN    FAIR      50  35  55 N15       30.28S
$$

COZ086-089-092>099-250700-
...SOUTHEAST COLORADO...

CITY           SKY/WX    TMP DP  RH WIND       PRES   REMARKS
PUEBLO         FAIR      57  28  33 N8        30.25R
LA JUNTA       FAIR      60  36  40 N23G36    30.18R
LAMAR          FAIR      54  39  57 N13       30.15R
SPRINGFIELD    NOT AVBL
$$




USA.gov is the U.S. government's official web portal to all federal, state and local government web resources and services.